Lancaster, PA

1:47 AM EST on November 20, 2019 (GMT -0500)
Lancaster

Weather History for KLNS - October, 2019

Change the Weather History Date:

Sunday, October 20, 2019

  Actual Average Record
Temperature  
Mean Temperature 50 °F -  
Max Temperature 55 °F 61 °F 79 °F (2016)
Min Temperature 46 °F 41 °F 26 °F (1981)
Degree Days  
Heating Degree Days 14    
Moisture  
Dew Point 49 °F    
Average Humidity 85    
Maximum Humidity 90    
Minimum Humidity 77    
Precipitation  
Precipitation 0.31 in - - ()
Sea Level Pressure  
Sea Level Pressure 29.98 in    
Wind  
Wind Speed 6 mph (ENE)    
Max Wind Speed 13 mph    
Max Gust Speed -    
Visibility 7 miles    
Events Rain    
Averages and records for this station are not official NWS values.
T = Trace of Precipitation, MM = Missing Value Source: NWS Daily Summary

Daily Weather History Graph

Daily Weather History Graph

Search for Another Location

Airport or City:

Astronomy

Oct. 20, 2019 Rise Set
Actual Time 7:20 AM EDT 6:18 PM EDT
Civil Twilight 6:53 AM EDT 6:46 PM EDT
Nautical Twilight 6:21 AM EDT 7:17 PM EDT
Astronomical Twilight 5:50 AM EDT 7:48 PM EDT
Moon 11:24 PM EDT 1:47 PM EDT
Length of Visible Light 11h 52m
Length of Day
10h 57m
Waning Gibbous, 59% of the Moon is Illuminated
Oct 20
Waning Gibbous
Oct 21
Last Quarter
Oct 27
New
Nov 4
First Quarter
Nov 12
Full

Hourly Weather History & Observations

Time (EDT) Temp. Windchill Dew Point Humidity Pressure Visibility Wind Dir Wind Speed Gust Speed Precip Events Conditions
12:53 AM 48.0 °F - 41.0 °F 77% 30.01 in 10.0 mi East 4.6 mph - N/A   Clear
1:53 AM 46.9 °F - 42.1 °F 83% 30.01 in 10.0 mi East 4.6 mph - N/A   Clear
2:53 AM 48.0 °F - 42.1 °F 80% 30.00 in 10.0 mi East 4.6 mph - N/A   Clear
3:53 AM 46.0 °F 44.8 °F 41.0 °F 83% 29.98 in 10.0 mi East 3.5 mph - N/A   Clear
4:53 AM 48.9 °F - 43.0 °F 80% 29.97 in 10.0 mi East 4.6 mph - N/A   Scattered Clouds
5:53 AM 48.9 °F - 43.0 °F 80% 29.98 in 10.0 mi East 4.6 mph - N/A   Overcast
6:53 AM 50.0 °F - 44.1 °F 80% 29.99 in 10.0 mi East 4.6 mph - N/A   Mostly Cloudy
7:53 AM 51.1 °F - 44.1 °F 77% 30.00 in 9.0 mi Calm Calm - 0.00 in Rain Light Rain
8:53 AM 52.0 °F - 46.9 °F 83% 30.01 in 6.0 mi ENE 4.6 mph - 0.04 in Rain Light Rain
9:53 AM 52.0 °F - 48.9 °F 89% 30.01 in 5.0 mi East 5.8 mph - 0.04 in Rain Light Rain
10:53 AM 54.0 °F - 51.1 °F 90% 30.02 in 6.0 mi East 3.5 mph - 0.01 in Rain Light Rain
11:53 AM 55.0 °F - 52.0 °F 89% 30.02 in 4.0 mi East 5.8 mph - 0.05 in Rain Light Rain
12:07 PM 55.0 °F - 52.0 °F 89% 30.01 in 5.0 mi East 4.6 mph - 0.01 in Rain Light Rain
12:17 PM 55.0 °F - 52.0 °F 89% 30.01 in 5.0 mi East 5.8 mph - 0.02 in Rain Light Rain
12:28 PM 55.0 °F - 52.0 °F 89% 30.00 in 4.0 mi ENE 8.1 mph - 0.02 in Rain Light Rain
12:53 PM 55.0 °F - 52.0 °F 89% 30.00 in 4.0 mi East 6.9 mph - 0.06 in Rain Rain
1:08 PM 55.0 °F - 52.0 °F 89% 29.99 in 4.0 mi East 6.9 mph - 0.01 in Rain Light Rain
1:43 PM 55.0 °F - 51.1 °F 86% 29.97 in 4.0 mi ENE 10.4 mph - 0.05 in Rain Light Rain
1:53 PM 55.0 °F - 51.1 °F 86% 29.97 in 4.0 mi ENE 8.1 mph - 0.06 in Rain Rain
2:53 PM 55.0 °F - 51.1 °F 86% 29.94 in 5.0 mi ENE 11.5 mph - 0.03 in Rain Light Rain
3:53 PM 55.0 °F - 51.1 °F 86% 29.95 in 10.0 mi ENE 11.5 mph - 0.00 in   Overcast
4:18 PM 55.9 °F - 51.1 °F 84% 29.94 in 10.0 mi NE 10.4 mph - N/A   Mostly Cloudy
4:53 PM 55.9 °F - 51.1 °F 84% 29.95 in 10.0 mi NE 8.1 mph - N/A   Overcast
5:21 PM 55.0 °F - 50.0 °F 83% 29.95 in 10.0 mi NE 10.4 mph - N/A   Overcast
5:53 PM 54.0 °F - 50.0 °F 86% 29.96 in 7.0 mi NE 12.7 mph - 0.00 in Rain Light Rain
6:11 PM 54.0 °F - 50.0 °F 86% 29.95 in 7.0 mi NE 11.5 mph - 0.00 in Rain Light Rain
6:33 PM 54.0 °F - 50.0 °F 86% 29.95 in 9.0 mi NE 12.7 mph - 0.00 in Rain Light Rain
6:53 PM 54.0 °F - 50.0 °F 86% 29.96 in 9.0 mi NE 9.2 mph - 0.00 in Rain Light Rain
7:53 PM 54.0 °F - 50.0 °F 86% 29.96 in 8.0 mi NE 8.1 mph - 0.00 in Rain Light Rain
8:53 PM 54.0 °F - 50.0 °F 86% 29.97 in 9.0 mi NNE 6.9 mph - 0.01 in   Overcast
9:18 PM 54.0 °F - 50.0 °F 86% 29.97 in 7.0 mi NNE 6.9 mph - 0.00 in Rain Light Rain
9:53 PM 54.0 °F - 50.0 °F 86% 29.98 in 8.0 mi North 5.8 mph - 0.01 in   Overcast
10:26 PM 54.0 °F - 50.0 °F 86% 29.98 in 7.0 mi NNE 8.1 mph - 0.00 in   Overcast
10:53 PM 54.0 °F - 50.0 °F 86% 29.99 in 6.0 mi North 5.8 mph - 0.00 in   Overcast
11:53 PM 54.0 °F - 50.0 °F 86% 29.98 in 6.0 mi NNE 6.9 mph - N/A   Overcast